Погода в Ашкове

Россия / Смоленская область     55°35′53″N   34°58′58″E
темп.,
°C
ветер,
м/с
пор.,
м/с
влажн.,
%
обл.,
%
осадки,
мм/ч
давл.,
гПа
погр.,
м
2 августа, пн
пн200:00+17юз3490100 0.0 101060
03:00+16юз119092 0.0 101011
06:00+17юв349187 0.0 100886
09:00+23ююв577328 0.0 1007478
12:00+26ю71160100 0.7 10051339
15:00+28ю8145781 1.0 10021787
18:00+28ю10175769 0.4 9991899
21:00+22зюз91563100 0.4 10021051
3 августа, вт
вт300:00+17юз6137821 0.0 1004661
03:00+14зюз49953 0.0 1006234
06:00+14зюз389283 0.0 1007315
09:00+18з577010 0.0 1009833
12:00+21зюз67525 0.0 10091595
15:00+23зюз794148 0.0 10092470
18:00+21зюз585263 0.0 10101972
21:00+18юз4961100 0.0 1011345
4 августа, ср
ср400:00+17зюз496199 0.0 1012250
03:00+15з357082 0.0 1014154
06:00+12з24874 0.0 101578
09:00+18з33655 0.0 1016514
12:00+20з236378 1.8 1016960
15:00+20зюз226238 5.9 1016869
18:00+20юз116374 1.2 1016711
21:00+15в117811 3.9 101711
5 августа, чт
чт500:00+15ю228390 0.3 101714
03:00+13юз119135 0.7 101811
06:00+13ююв118899 0.0 101810
09:00+18ююв237498 0.0 1018330
12:00+20юз3467100 2.8 1017410
15:00+15ссз3589100 4.0 1018174
18:00+15св4791100 0.2 1017377
21:00+14св259649 0.4 1017205
6 августа, пт
пт600:00+12всв3598100 0.0 1016122
03:00+13всв3598100 0.0 1017153
06:00+12всв489972 0.0 1017279
09:00+16всв568211 0.0 1016478
12:00+21в4561100 0.0 10151130
15:00+22в3564100 0.0 1014901
18:00+19св4982100 0.4 1014251
21:00+17в61483100 0.8 1013338